Location: Days
(41.3591°N, 106.7339°W)
Time: 23:04:29
(UTC+00:00)

UWE-3 - Pass Details

Date: 06 July 2022
Orbit: 583 x 677 km, 97.7° (Epoch: 09 August)

Event Time Altitude Azimuth Distance (km) Brightness Sun altitude
Rises 10:25:38 0° 14° (NNE) 2,923 ? -11.8°
Reaches altitude 10° 10:27:49 10° 16° (NNE) 2,027 ? -11.5°
Maximum altitude 10:32:15 76° 102° (ESE) 670 ? -10.9°
Drops below altitude 10° 10:36:46 10° 188° (S) 2,066 ? -10.3°
Enters shadow 10:37:24 - 189° (S) 2,322 ? -10.2°
